SCP
-1 -1 -1 -0 -0 -0 -0 -0 0 0 0 0 0 0 0 0 0 0 0 0 0 0 0 0 0 -0 -0 -0 0 0 0 0 0 0 0 0 0 0 0 0 1 1 0
-1 -0 -1 -1 -0 -1 -0 0 -0 0 0 0 1 1 0 0 0 1 0 0 0 0 0 0 0 0 0 0 0 0 0 0 0 0 0 0 0 1 1 1 1 0 0
-1 -1 -1 -0 -0 -0 -1 -0 -0 0 0 1 0 0 0 1 1 1 1 0 0 0 0 0 0 0 0 1 0 0 0 0 0 0 0 0 0 1 0 1 1 2 1
-1 -1 -1 -1 -1 -0 -0 -0 0 0 0 0 0 0 0 0 0 0 1 0 0 0 0 0 0 0 0 1 0 0 0 0 0 0 0 0 0 0 0 0 1 0 -0
-1 -2 -2 -1 -1 -0 0 -0 0 0 0 0 0 0 0 0 0 0 0 0 0 0 0 0 0 0 0 1 1 1 1 1 1 1 0 0 0 1 1 1 1 1 1
1 -0 -0 -1 -0 -0 0 0 0 1 1 1 1 1 0 0 0 0 0 0 0 0 0 1 0 0 0 0 0 0 1 1 1 1 1 1 1 1 1 1 1 1 1
4 3 2 1 1 0 0 0 1 0 1 1 1 1 1 1 0 0 0 0 0 0 0 1 0 0 0 1 0 0 0 0 0 1 1 1 0 1 0 0 0 0 1
6 5 5 4 3 2 1 1 0 0 1 1 1 1 1 1 1 0 0 0 1 0 0 1 1 1 1 1 1 3 1 1 0 0 0 0 0 0 0 0 0 0 0
5 5 4 5 3 2 2 2 2 2 1 1 1 1 1 1 1 1 0 1 1 1 1 0 0 1 1 0 2 2 2 1 0 0 0 0 0 0 0 0 0 0 0
4 3 3 3 3 2 2 2 3 3 2 1 1 1 1 1 1 1 0 1 1 1 1 0 0 0 0 0 1 1 1 1 1 0 0 0 0 0 0 0 0 0 0
5 5 4 4 4 3 3 3 4 4 3 2 2 1 0 1 1 1 0 1 1 1 1 1 2 1 0 0 0 1 0 0 0 0 0 0 0 0 0 0 0 0 0
5 5 5 4 3 3 2 3 3 2 3 2 1 0 0 1 0 0 0 0 0 1 1 1 3 0 0 0 0 0 0 0 0 0 0 0 0 0 0 0 0 0 0
1 2 3 4 4 4 2 3 2 1 1 0 0 0 0 0 0 0 0 0 0 -0 0 0 0 0 0 0 0 0 0 0 0 0 0 0 0 0 0 0 0 0 0
2 1 0 1 1 2 2 1 1 1 1 0 0 0 0 0 0 0 0 0 0 0 0 0 0 0 0 0 0 0 0 0 0 0 0 0 0 0 0 0 0 0 0
3 3 3 2 1 2 1 2 2 1 0 0 1 0 0 0 0 0 0 0 0 -0 0 0 0 0 0 0 0 0 0 0 0 0 0 0 0 0 0 0 0 0 0
5 3 3 1 3 2 3 2 0 0 0 0 0 0 0 0 0 0 0 0 0 -0 0 0 0 0 0 0 0 0 0 0 0 0 0 0 0 0 0 0 0 0 0
1 1 0 1 2 4 3 2 1 0 0 0 0 0 0 0 0 0 0 0 0 0 0 0 0 0 0 0 0 0 0 0 0 0 0 0 0 0 0 0 0 0 0
2 1 1 1 0 0 1 1 1 2 1 1 0 0 0 0 0 0 0 0 0 0 0 0 0 0 0 0 0 0 0 0 0 0 0 0 0 0 0 0 0 0 0
1 1 1 0 0 0 0 0 0 0 1 1 0 0 0 0 0 0 0 0 0 0 0 0 0 0 0 0 0 0 0 0 0 0 0 0 0 0 0 0 0 0 0
1 1 1 1 0 0 0 0 0 0 0 0 1 0 0 0 0 0 0 0 0 0 0 0 0 0 0 0 0 0 0 0 0 0 0 0 0 0 0 0 0 0 0
1 1 0 0 0 0 0 0 0 0 0 0 0 0 0 0 0 0 0 0 0 0 0 0 0 0 0 0 0 0 0 0 0 0 0 0 0 0 0 0 0 0 0
0 0 0 1 1 0 0 0 0 0 0 0 0 0 0 0 0 0 0 0 0 0 0 0 0 0 0 0 0 0 0 0 0 0 0 0 0 0 0 0 0 0 0
0 0 0 0 0 0 0 0 0 0 0 0 0 0 0 1 1 1 0 0 0 0 0 0 0 0 0 0 0 0 0 0 0 0 0 0 0 0 0 0 0 0 0
0 0 0 0 0 0 0 0 0 0 0 0 0 0 0 0 1 1 0 0 0 0 0 0 0 0 0 0 0 0 0 0 0 0 0 0 0 0 0 0 0 0 0
0 0 0 0 0 0 0 0 0 0 0 0 0 1 1 0 1 1 0 0 0 0 0 0 0 0 0 0 0 0 0 0 0 0 0 0 0 0 0 0 0 0 0
0 -0 -0 0 0 0 0 0 0 0 0 0 1 1 0 1 1 1 0 0 0 0 0 0 0 0 0 0 0 0 0 0 0 0 0 0 0 0 0 0 0 0 0
Wind_Speed_500mb
53 57 50 49 48 46 53 47 43 48 39 37 41 42 39 47 48 43 42 36 29 39 37 36 36 33 29 26 22 21 18 26 31 37 44 45 37 32 24 38 38 34 31
55 59 57 53 48 45 49 51 46 44 53 44 46 49 45 42 43 42 45 45 34 40 29 25 32 28 27 24 21 22 27 24 34 42 43 39 33 28 37 39 43 43 35
56 58 61 59 55 54 49 52 54 38 56 58 48 49 48 47 52 52 46 40 39 44 38 37 29 26 30 34 31 30 34 38 35 34 43 42 42 39 45 42 42 53 48
58 63 65 64 60 56 58 45 53 44 37 54 60 56 54 50 51 47 46 40 39 41 42 36 36 32 32 37 33 35 34 34 36 41 40 43 43 44 48 43 40 47 56
59 64 64 63 61 55 53 52 45 53 46 38 41 57 54 53 54 53 52 49 47 43 43 42 38 30 35 39 41 42 44 46 49 49 50 54 56 53 47 57 60 54 60
59 62 63 65 64 61 59 56 55 49 50 46 48 49 52 57 53 50 49 45 47 44 44 42 39 43 37 40 39 40 43 44 45 47 52 58 60 62 65 58 63 62 58
46 56 60 60 63 66 61 62 60 56 49 46 41 39 43 47 51 46 47 53 51 42 43 49 42 30 35 31 36 47 51 48 48 48 53 53 59 51 44 50 49 54 48
51 44 51 53 58 56 64 64 63 61 53 50 47 44 42 42 44 46 54 56 57 60 54 45 43 48 53 56 57 60 57 44 43 49 52 53 55 55 57 61 58 57 62
35 38 46 48 52 52 58 61 60 57 52 47 45 44 43 41 39 41 44 58 63 65 65 66 68 68 66 61 56 55 54 57 54 49 45 47 53 52 52 55 54 55 62
24 30 36 39 41 44 48 53 54 52 47 43 42 41 40 38 37 36 41 46 57 61 59 60 59 57 59 57 54 57 59 44 45 46 47 53 54 58 39 34 33 34 33
19 20 23 28 34 39 41 48 52 50 46 43 41 33 36 35 34 35 39 47 55 56 57 56 57 55 57 59 52 44 43 47 43 44 50 53 37 26 33 31 34 36 39
6 7 15 23 29 32 42 46 44 42 42 44 33 26 34 52 44 36 37 41 50 61 62 50 56 63 62 62 49 43 44 44 44 42 39 23 29 35 32 40 40 41 38
8 13 11 8 12 18 21 30 25 26 35 40 42 48 38 76 63 38 50 51 51 58 66 64 64 63 59 54 47 45 44 39 33 29 25 31 26 24 33 40 37 29 33
16 15 13 17 16 29 31 34 45 35 38 48 45 39 44 60 66 64 80 75 76 57 65 73 75 55 51 54 50 43 37 30 23 26 25 24 22 27 25 24 28 33 28
23 19 16 23 19 12 20 24 32 31 29 37 37 35 32 32 38 41 61 72 67 75 63 54 51 59 54 50 42 33 24 24 26 20 18 21 22 24 21 25 25 24 23
30 29 26 25 34 18 17 18 21 19 19 25 36 43 46 36 36 5 31 28 47 61 64 65 54 39 31 24 27 31 34 33 27 21 16 20 25 21 19 20 22 18 18
43 55 46 32 27 25 26 19 25 21 24 29 27 31 33 42 51 48 41 35 35 52 67 54 41 39 37 42 46 37 33 40 39 23 17 20 23 22 20 17 18 20 18
37 41 37 33 34 29 22 27 31 31 32 28 32 36 35 32 38 43 46 49 55 56 53 47 43 41 40 37 34 34 35 39 36 24 25 27 25 20 19 20 15 15 22
49 50 45 42 45 40 36 40 34 33 31 34 39 40 38 37 37 41 53 58 61 57 50 53 50 46 43 42 42 38 32 40 33 26 22 26 26 25 22 20 19 17 18
62 56 55 53 49 41 36 41 47 42 41 45 42 41 42 48 52 47 50 63 63 53 51 51 56 53 44 43 39 39 39 42 30 26 29 32 29 25 23 23 27 20 16
53 62 62 66 64 56 54 58 61 55 44 41 46 51 50 51 55 48 40 52 63 59 56 48 41 42 45 50 48 42 39 38 21 22 23 21 26 26 23 26 26 20 20
60 68 63 61 58 62 61 60 56 53 55 51 48 52 56 49 41 43 42 42 58 55 46 48 46 48 49 46 43 35 39 39 33 32 24 20 18 21 26 27 25 19 14
57 59 55 64 59 57 51 53 52 52 54 54 51 55 53 51 40 38 45 41 40 48 59 50 48 50 44 42 38 36 31 32 29 27 28 29 22 17 12 11 8 5 7
55 66 60 53 53 54 57 59 58 54 60 51 50 54 55 53 45 46 45 49 44 44 48 56 52 48 46 44 40 38 36 33 31 28 35 30 25 21 20 20 28 19 14
54 60 66 58 51 49 51 52 47 43 55 48 51 53 72 44 40 45 46 52 53 50 44 52 49 51 47 44 42 35 33 37 36 34 32 33 29 26 23 23 23 21 22
36 45 49 57 58 60 58 55 48 44 53 54 62 60 57 55 51 54 53 49 54 53 48 53 49 49 49 48 48 42 43 39 37 38 36 31 27 28 24 24 23 24 22
Wind_Direction_500mb
210 212 216 222 225 224 213 232 233 214 217 223 218 222 223 220 221 230 227 220 247 238 245 241 250 255 242 242 235 271 266 284 293 280 286 294 297 298 274 274 298 282 276
214 206 217 216 214 227 220 218 237 225 214 215 215 219 217 221 226 228 235 223 238 253 252 246 260 261 258 260 261 276 270 283 293 293 299 300 302 295 287 289 291 296 277
212 211 212 217 217 213 230 213 234 233 217 219 225 223 220 223 226 229 238 242 234 240 248 252 253 248 242 262 267 261 267 270 283 286 290 301 306 305 305 300 298 293 286
216 213 213 219 220 217 220 224 220 238 231 224 227 230 232 231 229 231 239 241 249 245 246 254 258 258 253 271 275 282 283 284 277 278 283 286 286 291 297 306 290 278 281
213 215 217 219 219 222 218 231 223 224 241 239 231 234 238 237 239 239 241 239 242 253 254 248 254 253 258 270 276 283 284 279 279 280 281 282 283 283 281 293 295 283 276
211 216 212 218 217 219 222 225 234 231 232 233 234 235 235 240 244 237 247 253 244 246 257 252 254 248 259 274 279 282 278 277 279 280 281 281 282 286 289 289 287 284 280
211 213 214 221 223 221 222 224 229 235 235 235 235 236 238 242 244 236 243 249 252 250 253 257 256 253 265 260 262 268 274 276 274 277 279 283 289 286 283 297 299 288 275
212 211 209 220 226 229 224 226 227 234 232 231 234 238 238 239 244 241 232 238 247 249 244 249 249 249 249 254 264 270 278 277 272 279 282 287 292 288 289 292 292 287 281
218 213 215 219 230 233 228 227 228 230 232 231 238 242 245 246 244 246 240 237 244 251 255 254 254 257 260 266 264 266 266 271 274 274 278 280 284 287 290 289 285 284 283
220 226 226 227 230 232 232 232 230 230 227 231 240 247 253 257 254 248 243 243 247 252 259 264 263 261 259 262 267 276 275 268 268 269 264 269 280 293 297 299 303 304 291
237 230 232 229 225 227 230 232 233 229 229 229 231 248 259 257 256 265 267 257 254 253 253 258 261 261 265 265 271 268 273 277 278 275 273 276 286 294 303 286 294 297 303
250 257 232 231 230 234 237 237 238 233 232 233 239 247 302 274 260 248 248 255 268 267 252 260 252 258 266 274 278 272 273 279 279 279 281 265 255 265 259 274 283 289 290
256 203 202 200 201 210 239 235 229 241 245 248 257 265 265 249 253 247 267 277 269 265 263 258 258 261 267 277 271 273 276 274 272 270 264 265 268 257 264 272 275 272 281
264 253 271 273 256 236 241 249 263 268 265 263 263 263 259 263 269 268 266 260 246 255 272 264 269 267 276 279 273 271 270 267 258 262 269 273 258 254 262 273 271 281 277
254 256 254 270 281 290 285 269 257 280 264 263 251 262 269 284 287 283 270 246 239 262 282 266 267 275 275 274 265 260 258 275 266 269 274 265 263 260 269 276 287 290 281
251 262 265 255 256 245 265 270 290 274 261 248 252 261 268 267 272 265 158 192 187 219 249 263 268 268 264 259 257 258 264 271 276 278 261 260 261 252 270 273 293 305 300
246 249 249 266 255 239 247 239 249 269 277 270 272 281 272 254 254 248 220 229 244 238 245 249 239 246 237 239 247 232 240 257 274 257 255 261 256 245 260 275 280 298 305
249 255 242 243 265 264 260 263 263 253 261 276 278 272 279 277 253 258 260 254 243 245 233 238 233 228 229 239 240 241 238 256 264 251 248 258 247 255 254 270 275 282 301
263 256 244 253 256 257 254 257 263 267 280 264 261 273 273 276 267 254 254 255 253 250 236 228 225 226 228 232 238 250 241 244 265 252 251 253 239 240 245 260 269 254 281
253 252 251 247 252 260 264 254 256 252 263 264 271 269 270 264 253 247 255 245 240 237 235 232 224 218 223 233 234 235 242 253 253 242 243 247 250 236 248 245 258 256 261
254 252 253 253 252 252 256 260 262 264 260 252 258 263 260 265 257 251 273 251 233 217 227 230 219 217 222 227 231 230 240 256 245 238 245 254 242 244 246 241 249 262 248
253 253 254 253 248 242 245 250 254 257 257 263 256 256 257 256 246 261 263 244 219 211 221 217 217 224 226 231 237 235 222 241 253 258 261 245 261 279 235 234 243 252 254
256 258 254 250 251 253 250 247 251 255 257 258 255 262 262 241 228 233 242 255 236 224 208 213 222 216 225 231 229 234 229 231 227 239 254 241 257 259 288 225 236 275 13
253 251 247 260 250 249 248 248 248 252 257 256 250 256 250 240 244 241 237 230 236 228 225 215 212 226 219 222 228 226 232 232 221 230 224 229 244 216 240 247 252 265 279
250 251 242 265 262 265 262 262 265 264 263 261 256 253 250 235 239 240 234 230 227 228 224 222 225 218 223 222 219 229 230 229 222 216 231 209 214 231 224 213 232 229 225
262 238 251 254 260 268 271 270 263 258 256 263 265 256 254 251 257 235 231 232 229 222 220 223 226 228 229 226 221 220 233 230 234 238 237 204 207 217 231 217 231 234 233
Wind_Speed_850mb
53 57 50 49 48 46 53 47 43 48 39 37 41 42 39 47 48 43 42 36 29 39 37 36 36 33 29 26 22 21 18 26 31 37 44 45 37 32 24 38 38 34 31
55 59 57 53 48 45 49 51 46 44 53 44 46 49 45 42 43 42 45 45 34 40 29 25 32 28 27 24 21 22 27 24 34 42 43 39 33 28 37 39 43 43 35
56 58 61 59 55 54 49 52 54 38 56 58 48 49 48 47 52 52 46 40 39 44 38 37 29 26 30 34 31 30 34 38 35 34 43 42 42 39 45 42 42 53 48
58 63 65 64 60 56 58 45 53 44 37 54 60 56 54 50 51 47 46 40 39 41 42 36 36 32 32 37 33 35 34 34 36 41 40 43 43 44 48 43 40 47 56
59 64 64 63 61 55 53 52 45 53 46 38 41 57 54 53 54 53 52 49 47 43 43 42 38 30 35 39 41 42 44 46 49 49 50 54 56 53 47 57 60 54 60
59 62 63 65 64 61 59 56 55 49 50 46 48 49 52 57 53 50 49 45 47 44 44 42 39 43 37 40 39 40 43 44 45 47 52 58 60 62 65 58 63 62 58
46 56 60 60 63 66 61 62 60 56 49 46 41 39 43 47 51 46 47 53 51 42 43 49 42 30 35 31 36 47 51 48 48 48 53 53 59 51 44 50 49 54 48
51 44 51 53 58 56 64 64 63 61 53 50 47 44 42 42 44 46 54 56 57 60 54 45 43 48 53 56 57 60 57 44 43 49 52 53 55 55 57 61 58 57 62
35 38 46 48 52 52 58 61 60 57 52 47 45 44 43 41 39 41 44 58 63 65 65 66 68 68 66 61 56 55 54 57 54 49 45 47 53 52 52 55 54 55 62
24 30 36 39 41 44 48 53 54 52 47 43 42 41 40 38 37 36 41 46 57 61 59 60 59 57 59 57 54 57 59 44 45 46 47 53 54 58 39 34 33 34 33
19 20 23 28 34 39 41 48 52 50 46 43 41 33 36 35 34 35 39 47 55 56 57 56 57 55 57 59 52 44 43 47 43 44 50 53 37 26 33 31 34 36 39
6 7 15 23 29 32 42 46 44 42 42 44 33 26 34 52 44 36 37 41 50 61 62 50 56 63 62 62 49 43 44 44 44 42 39 23 29 35 32 40 40 41 38
8 13 11 8 12 18 21 30 25 26 35 40 42 48 38 76 63 38 50 51 51 58 66 64 64 63 59 54 47 45 44 39 33 29 25 31 26 24 33 40 37 29 33
16 15 13 17 16 29 31 34 45 35 38 48 45 39 44 60 66 64 80 75 76 57 65 73 75 55 51 54 50 43 37 30 23 26 25 24 22 27 25 24 28 33 28
23 19 16 23 19 12 20 24 32 31 29 37 37 35 32 32 38 41 61 72 67 75 63 54 51 59 54 50 42 33 24 24 26 20 18 21 22 24 21 25 25 24 23
30 29 26 25 34 18 17 18 21 19 19 25 36 43 46 36 36 5 31 28 47 61 64 65 54 39 31 24 27 31 34 33 27 21 16 20 25 21 19 20 22 18 18
43 55 46 32 27 25 26 19 25 21 24 29 27 31 33 42 51 48 41 35 35 52 67 54 41 39 37 42 46 37 33 40 39 23 17 20 23 22 20 17 18 20 18
37 41 37 33 34 29 22 27 31 31 32 28 32 36 35 32 38 43 46 49 55 56 53 47 43 41 40 37 34 34 35 39 36 24 25 27 25 20 19 20 15 15 22
49 50 45 42 45 40 36 40 34 33 31 34 39 40 38 37 37 41 53 58 61 57 50 53 50 46 43 42 42 38 32 40 33 26 22 26 26 25 22 20 19 17 18
62 56 55 53 49 41 36 41 47 42 41 45 42 41 42 48 52 47 50 63 63 53 51 51 56 53 44 43 39 39 39 42 30 26 29 32 29 25 23 23 27 20 16
53 62 62 66 64 56 54 58 61 55 44 41 46 51 50 51 55 48 40 52 63 59 56 48 41 42 45 50 48 42 39 38 21 22 23 21 26 26 23 26 26 20 20
60 68 63 61 58 62 61 60 56 53 55 51 48 52 56 49 41 43 42 42 58 55 46 48 46 48 49 46 43 35 39 39 33 32 24 20 18 21 26 27 25 19 14
57 59 55 64 59 57 51 53 52 52 54 54 51 55 53 51 40 38 45 41 40 48 59 50 48 50 44 42 38 36 31 32 29 27 28 29 22 17 12 11 8 5 7
55 66 60 53 53 54 57 59 58 54 60 51 50 54 55 53 45 46 45 49 44 44 48 56 52 48 46 44 40 38 36 33 31 28 35 30 25 21 20 20 28 19 14
54 60 66 58 51 49 51 52 47 43 55 48 51 53 72 44 40 45 46 52 53 50 44 52 49 51 47 44 42 35 33 37 36 34 32 33 29 26 23 23 23 21 22
36 45 49 57 58 60 58 55 48 44 53 54 62 60 57 55 51 54 53 49 54 53 48 53 49 49 49 48 48 42 43 39 37 38 36 31 27 28 24 24 23 24 22
Wind_Direction_850mb
210 212 216 222 225 224 213 232 233 214 217 223 218 222 223 220 221 230 227 220 247 238 245 241 250 255 242 242 235 271 266 284 293 280 286 294 297 298 274 274 298 282 276
214 206 217 216 214 227 220 218 237 225 214 215 215 219 217 221 226 228 235 223 238 253 252 246 260 261 258 260 261 276 270 283 293 293 299 300 302 295 287 289 291 296 277
212 211 212 217 217 213 230 213 234 233 217 219 225 223 220 223 226 229 238 242 234 240 248 252 253 248 242 262 267 261 267 270 283 286 290 301 306 305 305 300 298 293 286
216 213 213 219 220 217 220 224 220 238 231 224 227 230 232 231 229 231 239 241 249 245 246 254 258 258 253 271 275 282 283 284 277 278 283 286 286 291 297 306 290 278 281
213 215 217 219 219 222 218 231 223 224 241 239 231 234 238 237 239 239 241 239 242 253 254 248 254 253 258 270 276 283 284 279 279 280 281 282 283 283 281 293 295 283 276
211 216 212 218 217 219 222 225 234 231 232 233 234 235 235 240 244 237 247 253 244 246 257 252 254 248 259 274 279 282 278 277 279 280 281 281 282 286 289 289 287 284 280
211 213 214 221 223 221 222 224 229 235 235 235 235 236 238 242 244 236 243 249 252 250 253 257 256 253 265 260 262 268 274 276 274 277 279 283 289 286 283 297 299 288 275
212 211 209 220 226 229 224 226 227 234 232 231 234 238 238 239 244 241 232 238 247 249 244 249 249 249 249 254 264 270 278 277 272 279 282 287 292 288 289 292 292 287 281
218 213 215 219 230 233 228 227 228 230 232 231 238 242 245 246 244 246 240 237 244 251 255 254 254 257 260 266 264 266 266 271 274 274 278 280 284 287 290 289 285 284 283
220 226 226 227 230 232 232 232 230 230 227 231 240 247 253 257 254 248 243 243 247 252 259 264 263 261 259 262 267 276 275 268 268 269 264 269 280 293 297 299 303 304 291
237 230 232 229 225 227 230 232 233 229 229 229 231 248 259 257 256 265 267 257 254 253 253 258 261 261 265 265 271 268 273 277 278 275 273 276 286 294 303 286 294 297 303
250 257 232 231 230 234 237 237 238 233 232 233 239 247 302 274 260 248 248 255 268 267 252 260 252 258 266 274 278 272 273 279 279 279 281 265 255 265 259 274 283 289 290
256 203 202 200 201 210 239 235 229 241 245 248 257 265 265 249 253 247 267 277 269 265 263 258 258 261 267 277 271 273 276 274 272 270 264 265 268 257 264 272 275 272 281
264 253 271 273 256 236 241 249 263 268 265 263 263 263 259 263 269 268 266 260 246 255 272 264 269 267 276 279 273 271 270 267 258 262 269 273 258 254 262 273 271 281 277
254 256 254 270 281 290 285 269 257 280 264 263 251 262 269 284 287 283 270 246 239 262 282 266 267 275 275 274 265 260 258 275 266 269 274 265 263 260 269 276 287 290 281
251 262 265 255 256 245 265 270 290 274 261 248 252 261 268 267 272 265 158 192 187 219 249 263 268 268 264 259 257 258 264 271 276 278 261 260 261 252 270 273 293 305 300
246 249 249 266 255 239 247 239 249 269 277 270 272 281 272 254 254 248 220 229 244 238 245 249 239 246 237 239 247 232 240 257 274 257 255 261 256 245 260 275 280 298 305
249 255 242 243 265 264 260 263 263 253 261 276 278 272 279 277 253 258 260 254 243 245 233 238 233 228 229 239 240 241 238 256 264 251 248 258 247 255 254 270 275 282 301
263 256 244 253 256 257 254 257 263 267 280 264 261 273 273 276 267 254 254 255 253 250 236 228 225 226 228 232 238 250 241 244 265 252 251 253 239 240 245 260 269 254 281
253 252 251 247 252 260 264 254 256 252 263 264 271 269 270 264 253 247 255 245 240 237 235 232 224 218 223 233 234 235 242 253 253 242 243 247 250 236 248 245 258 256 261
254 252 253 253 252 252 256 260 262 264 260 252 258 263 260 265 257 251 273 251 233 217 227 230 219 217 222 227 231 230 240 256 245 238 245 254 242 244 246 241 249 262 248
253 253 254 253 248 242 245 250 254 257 257 263 256 256 257 256 246 261 263 244 219 211 221 217 217 224 226 231 237 235 222 241 253 258 261 245 261 279 235 234 243 252 254
256 258 254 250 251 253 250 247 251 255 257 258 255 262 262 241 228 233 242 255 236 224 208 213 222 216 225 231 229 234 229 231 227 239 254 241 257 259 288 225 236 275 13
253 251 247 260 250 249 248 248 248 252 257 256 250 256 250 240 244 241 237 230 236 228 225 215 212 226 219 222 228 226 232 232 221 230 224 229 244 216 240 247 252 265 279
250 251 242 265 262 265 262 262 265 264 263 261 256 253 250 235 239 240 234 230 227 228 224 222 225 218 223 222 219 229 230 229 222 216 231 209 214 231 224 213 232 229 225
262 238 251 254 260 268 271 270 263 258 256 263 265 256 254 251 257 235 231 232 229 222 220 223 226 228 229 226 221 220 233 230 234 238 237 204 207 217 231 217 231 234 233